Probability
0 0 0 0 0 0 0 0 0 0 0 0 0 0 0 0 0 0 0 0 0 0 0 0 0 0 0 0 0 0 0 0 0 0 0 0 0 0 0 0 0 0 0
0 0 0 0 0 0 0 0 0 0 0 0 0 0 0 0 0 0 0 0 0 0 0 0 0 0 0 0 0 0 0 0 0 0 0 0 0 0 0 0 0 0 0
0 0 0 0 0 0 0 0 0 0 0 0 0 0 0 0 0 0 0 0 0 0 0 0 0 0 0 0 0 0 0 0 0 0 0 0 0 0 0 0 0 0 0
0 0 0 0 0 0 0 0 0 0 0 0 0 0 0 0 0 0 0 0 0 0 0 0 0 0 0 0 0 0 0 0 0 0 0 0 0 0 0 0 0 0 0
0 0 0 0 0 0 0 0 0 0 0 0 0 0 0 0 0 0 0 0 0 0 0 0 0 0 0 0 0 0 0 0 0 0 0 0 0 0 0 0 0 0 0
0 0 0 0 0 0 0 0 0 0 0 0 0 0 0 0 0 0 0 0 0 0 0 0 0 0 0 0 0 0 0 0 0 0 0 0 0 0 0 0 0 0 0
0 0 0 0 0 0 0 0 0 0 0 0 0 0 0 0 0 0 0 0 0 0 0 0 0 0 0 0 0 0 0 0 0 0 0 0 0 0 0 0 0 0 0
0 0 0 0 0 0 0 0 0 0 0 0 0 0 0 0 0 0 0 0 0 0 0 0 0 0 0 0 0 0 0 0 0 0 0 0 0 0 0 0 0 0 0
0 0 0 0 0 0 0 0 0 0 0 0 0 0 0 0 0 0 0 0 0 0 0 0 0 0 0 0 0 0 0 0 0 0 0 0 0 0 0 0 0 0 0
0 0 0 0 0 0 0 0 0 0 0 0 0 0 0 0 0 0 0 0 0 0 0 0 0 0 0 0 0 0 0 0 0 0 0 0 0 0 0 0 0 0 0
0 0 0 0 0 0 0 0 0 0 0 0 0 0 0 0 0 0 0 0 0 0 0 0 0 0 0 0 0 0 0 0 0 0 0 0 0 0 0 0 0 0 0
0 0 0 0 0 0 0 0 0 0 0 0 0 0 0 0 0 0 0 0 0 0 0 0 0 0 0 0 0 0 0 0 0 0 0 0 0 0 0 0 0 0 0
0 0 0 0 0 0 0 0 0 0 0 0 0 0 0 0 0 0 0 0 0 0 0 0 0 0 0 0 0 0 0 0 0 0 0 0 0 0 0 0 0 0 0
0 0 0 0 0 0 0 0 0 0 0 0 0 0 0 0 0 0 0 0 0 0 0 0 0 0 0 0 0 0 0 0 0 0 0 0 0 0 0 0 0 0 0
0 0 0 0 0 0 0 0 0 0 0 0 0 0 0 0 0 0 0 0 0 0 0 0 0 0 0 0 0 0 0 0 0 0 0 0 0 0 0 0 0 0 0
0 0 0 0 0 0 0 0 0 0 0 0 0 0 0 0 0 0 0 0 0 0 0 0 0 0 0 0 0 0 0 0 0 0 0 0 0 0 0 0 0 0 0
0 0 0 0 0 0 0 0 0 0 0 0 0 0 0 0 0 0 0 0 0 0 0 0 0 0 0 0 0 0 0 0 0 0 0 0 0 0 0 0 0 0 0
0 0 0 0 0 0 0 0 0 0 0 0 0 0 0 0 0 0 0 0 0 0 0 0 0 0 0 0 0 0 0 0 0 0 0 0 0 0 0 0 0 0 0
0 0 0 0 0 0 0 0 0 0 0 0 0 0 0 0 0 0 0 0 0 0 0 0 0 0 0 0 0 0 0 0 0 0 0 0 0 0 0 0 0 0 0
0 0 0 0 0 0 0 0 0 0 0 0 0 0 0 0 0 0 0 0 0 0 0 0 0 0 0 0 0 0 0 0 0 0 0 0 0 0 0 0 0 0 0
0 0 0 0 0 0 0 0 0 0 0 0 0 0 0 0 0 0 0 0 0 0 0 0 0 0 0 0 0 0 0 0 0 0 0 0 0 0 0 0 0 0 0
0 0 0 0 0 0 0 0 0 0 0 0 0 0 0 0 0 0 0 0 0 0 0 0 0 0 0 0 0 0 0 0 0 0 0 0 0 0 0 0 0 0 0
0 0 0 0 0 0 0 0 0 0 0 0 0 0 0 0 0 0 0 0 0 0 0 0 0 0 0 0 0 0 0 0 0 0 0 0 0 0 0 0 0 0 0
0 0 0 0 0 0 0 0 0 0 0 0 0 0 0 0 0 0 0 0 0 0 0 0 0 0 0 0 0 0 0 0 0 0 0 0 0 0 0 0 0 0 0
0 0 0 0 0 0 0 0 0 0 0 0 0 0 0 0 0 0 0 0 0 0 0 0 0 0 0 0 0 0 0 0 0 0 0 0 0 0 0 0 0 0 0
0 0 0 0 0 0 0 0 0 0 0 0 0 0 0 0 0 0 0 0 0 0 0 0 0 0 0 0 0 0 0 0 0 0 0 0 0 0 0 0 0 0 0
Height
5725 5720 5716 5711 5706 5701 5696 5691 5686 5681 5676 5672 5667 5662 5657 5651 5646 5641 5636 5632 5627 5622 5617 5613 5609 5606 5601 5596 5593 5590 5587 5582 5578 5582 5579 5574 5570 5567 5564 5560 5558 5556 5555
5712 5707 5702 5697 5692 5687 5681 5676 5671 5665 5660 5654 5649 5644 5638 5633 5627 5621 5616 5612 5607 5602 5597 5593 5589 5587 5583 5580 5577 5574 5571 5568 5563 5562 5563 5559 5556 5554 5551 5549 5546 5544 5543
5699 5693 5688 5682 5676 5671 5665 5659 5653 5647 5642 5636 5630 5625 5619 5614 5608 5602 5596 5591 5586 5581 5576 5572 5569 5566 5563 5561 5559 5557 5555 5552 5548 5545 5546 5544 5542 5540 5538 5535 5533 5532 5531
5683 5677 5672 5666 5660 5654 5648 5642 5635 5628 5622 5617 5611 5605 5599 5593 5587 5581 5575 5571 5566 5561 5557 5552 5550 5546 5543 5541 5538 5537 5536 5534 5531 5529 5528 5528 5527 5526 5524 5522 5520 5519 5518
5665 5659 5653 5647 5641 5634 5628 5622 5615 5609 5602 5596 5590 5585 5579 5572 5565 5558 5552 5549 5545 5542 5538 5534 5530 5527 5523 5520 5517 5517 5516 5515 5513 5512 5512 5512 5512 5512 5511 5509 5507 5506 5504
5645 5638 5632 5626 5619 5613 5606 5600 5594 5588 5582 5576 5570 5564 5558 5551 5543 5535 5529 5526 5523 5520 5517 5514 5511 5507 5504 5500 5498 5497 5497 5496 5496 5495 5496 5496 5497 5498 5497 5495 5494 5492 5492
5624 5617 5610 5603 5596 5590 5583 5577 5571 5566 5561 5555 5549 5542 5536 5530 5522 5514 5508 5504 5500 5497 5495 5492 5491 5489 5484 5481 5479 5479 5479 5479 5479 5478 5478 5480 5482 5483 5483 5482 5481 5480 5480
5602 5595 5587 5580 5574 5568 5561 5555 5549 5543 5537 5531 5525 5520 5514 5509 5502 5495 5489 5485 5482 5478 5474 5471 5469 5468 5465 5461 5459 5460 5461 5461 5461 5461 5462 5464 5466 5467 5468 5470 5468 5468 5468
5579 5572 5565 5559 5552 5546 5540 5533 5526 5520 5515 5509 5504 5499 5494 5489 5483 5476 5468 5464 5461 5458 5455 5452 5447 5445 5444 5441 5439 5440 5442 5444 5444 5445 5447 5449 5450 5451 5453 5456 5456 5457 5456
5558 5552 5544 5537 5530 5524 5518 5511 5505 5498 5493 5488 5484 5478 5473 5468 5462 5455 5446 5440 5438 5436 5434 5431 5427 5424 5423 5422 5421 5422 5425 5428 5429 5430 5433 5435 5436 5437 5439 5443 5444 5444 5444
5539 5532 5524 5517 5510 5504 5497 5491 5484 5478 5472 5467 5462 5457 5451 5444 5437 5429 5420 5414 5410 5409 5409 5408 5407 5406 5405 5405 5405 5406 5409 5412 5413 5416 5419 5421 5423 5424 5427 5430 5432 5433 5433
5520 5513 5506 5499 5492 5484 5478 5471 5463 5455 5448 5442 5435 5430 5425 5417 5409 5402 5395 5390 5386 5384 5385 5386 5387 5388 5388 5389 5390 5392 5395 5398 5401 5404 5407 5409 5411 5413 5415 5418 5420 5422 5424
5502 5495 5488 5482 5474 5465 5457 5449 5440 5431 5421 5413 5406 5400 5396 5390 5383 5377 5374 5371 5369 5368 5369 5370 5370 5371 5372 5374 5377 5379 5383 5387 5390 5393 5395 5398 5400 5402 5405 5407 5410 5413 5414
5485 5478 5471 5463 5455 5446 5436 5425 5415 5405 5394 5385 5377 5370 5366 5362 5358 5355 5354 5354 5354 5354 5356 5358 5358 5358 5358 5360 5363 5367 5372 5376 5379 5383 5386 5388 5391 5393 5396 5399 5402 5404 5404
5467 5459 5451 5442 5432 5423 5413 5402 5389 5379 5366 5357 5350 5344 5339 5338 5336 5334 5335 5337 5339 5341 5343 5346 5347 5348 5349 5350 5352 5356 5361 5366 5370 5374 5377 5380 5384 5387 5390 5392 5394 5395 5394
5446 5437 5428 5418 5408 5398 5387 5379 5368 5356 5347 5337 5330 5324 5320 5317 5316 5318 5319 5322 5325 5328 5332 5335 5336 5338 5339 5340 5342 5347 5353 5358 5362 5366 5369 5373 5377 5381 5383 5385 5386 5386 5385
5425 5415 5406 5396 5385 5374 5364 5353 5346 5341 5333 5325 5318 5312 5307 5303 5302 5303 5305 5309 5313 5317 5322 5325 5327 5329 5330 5332 5335 5340 5345 5350 5355 5359 5362 5366 5369 5374 5377 5378 5379 5378 5377
5404 5394 5383 5373 5363 5352 5342 5333 5326 5321 5319 5316 5310 5303 5297 5294 5291 5291 5292 5297 5302 5307 5312 5316 5318 5321 5323 5325 5329 5333 5339 5344 5348 5352 5356 5359 5363 5367 5370 5372 5372 5371 5368
5383 5372 5362 5352 5342 5332 5324 5317 5311 5307 5304 5301 5299 5294 5289 5286 5283 5281 5282 5286 5291 5297 5303 5308 5311 5314 5317 5320 5323 5328 5333 5338 5342 5346 5350 5354 5358 5362 5365 5366 5366 5364 5361
5362 5351 5340 5331 5323 5315 5308 5303 5298 5294 5291 5288 5285 5282 5280 5277 5275 5274 5274 5276 5282 5288 5295 5301 5305 5309 5312 5315 5318 5323 5328 5333 5337 5342 5346 5350 5354 5358 5360 5361 5361 5358 5354
5339 5331 5322 5313 5305 5299 5294 5289 5285 5281 5278 5276 5274 5271 5269 5267 5266 5266 5266 5268 5273 5280 5288 5295 5300 5304 5307 5310 5315 5320 5324 5329 5333 5338 5343 5348 5352 5355 5357 5357 5356 5353 5348
5319 5311 5304 5297 5291 5286 5281 5277 5273 5269 5266 5264 5262 5261 5259 5257 5256 5257 5259 5261 5266 5273 5281 5289 5295 5299 5303 5307 5312 5317 5322 5326 5331 5336 5341 5345 5349 5352 5354 5353 5351 5348 5344
5302 5295 5289 5284 5278 5274 5269 5265 5261 5258 5255 5253 5252 5251 5250 5248 5248 5249 5251 5253 5259 5267 5276 5283 5290 5296 5300 5305 5310 5315 5320 5325 5329 5334 5339 5344 5348 5350 5350 5350 5348 5345 5341
5289 5283 5278 5272 5267 5262 5258 5254 5251 5248 5245 5243 5242 5242 5241 5240 5240 5241 5243 5246 5252 5261 5270 5279 5286 5292 5298 5303 5309 5314 5319 5325 5330 5335 5339 5343 5346 5348 5348 5348 5346 5343 5339
5277 5272 5266 5260 5255 5250 5246 5243 5241 5238 5235 5233 5233 5232 5232 5232 5232 5234 5236 5240 5247 5257 5266 5275 5283 5290 5296 5302 5308 5314 5320 5325 5331 5335 5339 5342 5345 5347 5348 5347 5345 5343 5340
5265 5259 5254 5248 5243 5239 5235 5232 5229 5227 5225 5223 5223 5223 5223 5224 5225 5227 5230 5235 5243 5253 5263 5272 5280 5288 5295 5301 5308 5314 5320 5327 5332 5336 5339 5342 5345 5347 5347 5347 5346 5344 5343
Wind_Speed
57 58 59 60 61 61 62 63 63 63 64 66 68 69 70 71 73 75 76 77 78 78 78 78 77 76 75 75 74 70 67 64 63 58 57 57 57 56 52 49 49 49 47
57 58 60 61 62 63 64 65 66 67 69 70 70 72 73 75 76 78 79 80 81 81 82 82 81 78 76 75 74 72 69 65 64 60 57 58 58 57 54 50 49 50 49
60 62 63 65 66 67 69 70 71 72 72 73 73 74 75 76 77 78 79 80 82 83 84 84 83 82 80 78 76 75 72 68 64 61 58 59 59 58 55 52 50 49 50
69 70 70 71 71 71 72 72 72 73 73 73 74 75 76 77 78 79 80 81 82 83 84 83 82 82 80 78 77 74 70 66 61 60 58 57 58 56 56 54 51 48 48
74 75 76 76 76 75 74 74 74 74 75 75 75 76 77 78 80 81 83 84 84 84 82 80 79 79 77 75 74 71 65 61 58 59 57 55 55 54 55 54 49 46 47
76 77 77 76 76 75 75 75 75 76 76 77 77 78 79 80 82 83 84 84 84 83 81 79 77 76 74 71 69 64 59 57 56 57 57 56 54 53 53 52 47 45 45
78 78 77 77 77 77 75 74 74 75 76 77 78 79 80 80 80 81 81 81 82 82 81 79 76 73 71 68 65 60 56 54 55 56 56 54 53 51 52 51 45 42 44
78 77 76 77 77 76 76 77 78 78 78 78 78 78 78 77 78 78 79 79 79 79 78 77 76 74 71 66 62 58 54 53 52 52 51 50 49 49 49 47 42 40 43
76 76 76 76 76 77 78 79 78 78 77 76 75 74 74 74 74 76 78 79 79 78 77 75 74 72 67 62 58 54 51 49 48 47 45 45 46 47 45 44 42 40 40
75 75 75 74 74 73 73 72 72 72 72 73 73 73 74 74 76 78 81 82 81 80 76 73 69 65 60 56 54 51 47 45 44 44 43 43 43 43 41 41 39 37 37
74 73 73 72 72 71 71 70 71 72 74 75 76 77 78 79 80 81 82 82 80 76 71 65 60 56 53 51 51 49 46 43 41 41 41 41 41 40 38 35 34 34 35
69 69 68 68 68 69 71 72 74 77 80 81 82 82 82 82 81 79 76 72 68 64 59 55 51 47 46 47 48 48 44 40 38 38 37 37 35 32 30 29 29 30 33
63 63 63 65 67 70 73 76 79 82 84 85 85 84 81 78 75 71 66 61 56 53 50 47 44 42 42 43 44 45 41 36 34 32 30 27 26 25 24 23 23 26 30
62 64 67 70 72 75 78 81 83 84 84 83 81 78 74 69 65 61 56 52 47 45 43 42 41 40 40 39 40 41 38 33 29 27 25 22 18 18 18 19 21 25 29
68 71 74 77 79 80 82 83 84 82 80 77 73 69 65 60 56 53 50 45 41 38 37 37 38 38 36 34 35 36 33 29 26 22 18 15 14 16 18 19 22 25 30
75 77 79 81 83 84 84 83 80 75 69 64 60 59 56 53 50 46 43 40 36 33 32 33 33 31 28 28 30 31 29 26 23 20 16 14 12 13 16 19 23 26 31
80 82 83 85 86 86 84 80 73 64 55 50 47 46 46 45 43 40 37 33 31 29 28 29 28 24 21 22 25 28 27 24 20 17 15 14 15 16 17 19 23 27 32
84 86 87 87 86 83 78 70 63 56 48 40 39 39 39 38 37 36 33 28 27 26 25 24 23 21 17 18 22 24 24 20 17 16 16 16 18 19 19 21 24 29 33
88 88 87 84 80 74 66 59 53 49 45 40 36 35 35 34 33 32 30 25 25 25 23 22 21 18 14 14 19 20 18 16 16 17 18 19 18 17 17 20 24 29 32
88 85 81 76 69 62 55 50 47 45 42 39 37 35 33 31 30 29 28 23 24 25 23 21 20 17 12 11 16 17 15 16 16 18 19 19 17 16 17 21 25 28 29
82 76 70 63 57 51 48 46 44 42 41 39 36 34 32 30 27 26 25 23 24 26 24 21 19 16 11 10 13 15 14 14 14 16 17 16 15 15 17 20 23 24 25
70 64 57 52 48 46 44 43 42 41 39 37 33 31 30 30 27 24 22 23 26 27 24 20 19 16 12 10 13 14 13 12 11 14 15 15 13 12 15 17 18 20 23
58 52 48 46 44 42 41 40 39 38 36 34 31 28 28 28 26 23 21 22 27 28 24 21 20 16 13 12 14 13 11 9 11 13 13 11 8 8 10 12 15 19 20
49 47 45 43 42 40 40 39 38 38 37 33 29 25 25 25 24 22 20 21 27 29 25 22 21 17 14 14 15 13 12 12 14 14 12 8 4 5 7 11 14 17 16
47 46 44 42 41 40 39 38 39 38 36 32 28 25 23 23 21 20 19 20 27 30 27 24 22 18 16 17 17 15 15 15 14 12 9 5 2 2 7 11 13 14 14
47 46 44 42 42 41 39 39 38 37 33 29 26 23 22 22 20 18 18 21 29 31 28 26 24 20 18 20 20 18 17 15 14 11 8 5 3 5 8 11 12 14 16
Wind_Direction
292 292 291 289 288 287 287 286 286 287 287 288 288 287 287 286 286 286 286 287 287 287 287 287 288 289 289 290 292 294 295 295 295 296 293 291 291 289 285 283 284 283 282
291 291 290 289 288 287 286 286 286 286 286 287 287 287 287 287 287 287 287 288 288 288 287 287 287 287 287 288 289 291 291 291 292 293 291 287 288 288 285 282 281 281 280
292 291 290 289 288 287 287 286 286 286 286 286 286 285 285 285 285 286 286 285 285 285 285 284 285 285 286 286 286 287 288 289 289 287 287 284 285 286 284 281 279 278 279
293 292 291 290 288 287 286 286 285 284 284 284 283 283 283 283 283 283 283 283 283 283 284 284 285 285 286 286 286 287 287 287 284 282 283 283 283 285 284 283 280 278 278
294 293 292 291 291 290 289 287 285 284 282 281 281 280 280 281 281 281 281 281 282 283 284 286 286 286 287 287 286 287 286 284 280 278 279 281 282 283 283 283 281 277 276
293 293 292 291 290 289 288 286 285 284 284 282 281 280 280 279 280 280 280 281 281 283 284 284 285 285 286 286 285 284 282 280 277 275 275 278 280 281 281 282 278 274 275
294 293 291 291 290 289 288 286 285 284 283 282 281 280 279 278 279 280 282 282 283 283 283 283 283 283 284 283 281 279 277 276 274 272 272 275 277 278 279 278 274 272 275
293 291 290 290 289 288 287 287 285 284 284 283 282 281 281 280 280 281 282 283 283 283 284 284 283 283 283 282 279 277 276 274 270 270 271 274 275 274 273 271 268 270 273
291 290 290 289 288 288 288 288 286 285 285 284 284 284 283 284 284 284 284 283 283 283 283 284 284 283 282 280 277 274 271 269 266 266 268 272 273 271 265 264 265 271 273
291 291 291 291 291 291 290 289 288 286 286 286 286 286 285 286 286 286 285 284 283 282 282 282 281 281 280 277 273 269 266 266 265 263 266 271 270 266 260 260 265 272 272
293 294 294 294 293 292 291 290 289 288 288 288 288 288 288 288 287 286 285 284 284 283 282 281 280 278 275 272 267 264 263 264 263 264 267 269 266 261 257 259 264 269 270
296 296 296 296 295 295 294 294 294 293 292 292 291 291 290 289 288 286 285 284 283 283 282 282 280 275 268 265 262 260 260 262 263 263 266 266 263 259 256 257 261 266 269
300 299 299 299 299 299 299 299 298 297 296 295 294 293 291 289 287 285 283 282 280 279 280 281 280 274 267 262 259 257 255 258 262 262 263 262 259 255 252 249 255 266 274
302 302 302 302 302 301 301 301 301 300 299 298 296 294 291 288 285 283 282 280 277 275 276 277 276 273 270 265 258 252 249 253 256 256 260 255 255 254 247 250 261 268 273
303 303 303 304 304 303 303 304 304 304 303 301 299 296 293 289 285 283 280 276 272 269 269 270 271 272 273 269 258 247 244 248 248 252 250 241 246 256 259 267 272 275 279
306 306 306 306 306 306 307 307 307 306 304 302 301 300 297 293 289 284 279 272 267 264 264 265 268 271 273 269 254 242 239 243 242 243 237 225 234 255 266 271 276 280 285
306 306 306 307 307 308 309 308 307 305 303 303 302 301 300 297 293 289 281 269 259 256 258 263 267 269 270 266 250 240 238 237 236 229 219 217 229 248 264 275 280 284 291
306 306 307 308 308 309 309 307 305 303 302 301 300 300 300 299 296 292 284 268 250 246 250 256 260 261 266 261 245 236 232 228 219 213 211 214 225 240 258 273 281 287 295
306 307 307 308 308 308 307 304 302 302 302 302 301 299 298 298 296 292 285 266 240 234 241 249 253 252 259 251 235 226 220 212 210 210 210 215 223 235 257 274 284 292 300
306 306 307 307 307 306 304 302 301 301 301 301 301 300 298 295 292 288 284 265 235 224 228 237 243 244 246 234 219 212 208 207 210 209 209 212 217 236 260 277 289 299 309
306 307 307 307 306 304 303 301 301 300 300 300 299 299 297 294 289 284 279 260 232 219 219 226 230 231 228 213 205 200 199 199 202 199 200 208 223 244 264 282 297 309 319
307 308 308 306 305 303 302 301 301 302 302 301 298 295 294 292 288 282 274 253 229 216 213 217 218 218 213 202 192 188 189 193 195 196 203 211 224 249 275 295 311 323 330
310 310 309 307 305 303 301 302 303 305 305 305 301 295 290 288 284 278 269 247 225 212 208 209 207 205 202 191 179 175 175 177 181 183 186 193 221 264 294 315 331 337 341
312 311 310 307 305 303 301 300 301 303 303 303 300 294 289 285 280 271 261 242 219 207 202 200 196 194 194 183 167 156 151 159 169 174 175 187 227 285 324 343 347 350 1
313 312 310 307 305 303 300 298 299 301 301 300 295 287 284 282 277 265 253 232 211 200 196 192 187 185 184 176 164 152 149 157 168 173 176 183 200 356 5 4 5 18 37
313 312 309 306 305 302 300 298 298 298 298 299 295 281 273 273 272 259 244 219 200 193 190 186 181 177 176 171 162 155 154 161 172 175 172 160 119 54 31 26 38 58 64